Location: Madrid
(40.4000°N, 3.6830°W)
Time: 08:33:59
(UTC+02:00)

ISS - Pass Details

Date: 10 October 2019
Orbit: 411 x 421 km, 51.6° (Epoch: 14 October)

Event Time Altitude Azimuth Distance (km) Brightness Sun altitude
Rises 21:19:03 0° 289° (WNW) 2,342 1.6 -19.1°
Reaches altitude 10° 21:21:54 10° 263° (W) 1,475 0.1 -19.6°
Maximum altitude 21:23:40 14° 230° (SW) 1,263 -0.8 -19.9°
Drops below altitude 10° 21:25:26 10° 198° (SSW) 1,469 -0.9 -20.3°
Enters shadow 21:26:10 - 188° (S) 1,654 -0.7 -20.4°
